Location: Peterborough
(44.3091°N, 78.3197°W)
Time: 00:40:46
(UTC-04:00)

SR - Pass Details

Date: 26 March 2023
Orbit: 581 x 867 km, 66.7° (Epoch: 02 June)

Event Time Altitude Azimuth Distance (km) Brightness Sun altitude
Rises 03:09:38 0° 207° (SSW) 3,018 - -37.4°
Reaches altitude 10° 03:12:01 10° 206° (SSW) 2,064 - -37.2°
Maximum altitude 03:16:39 79° 120° (ESE) 640 - -36.7°
Exits shadow 03:20:04 16° 35° (NE) 1,579 ? -36.3°
Drops below altitude 10° 03:21:00 10° 34° (NE) 1,946 ? -36.2°
Sets 03:23:12 0° 33° (NNE) 2,832 ? -35.9°
